Temperature
-2 -2 -2 -2 -3 -3 -3 -3 -3 -3 -3 -4 -4 -4 -3 -3 -4 -3 -3 -4 -4 -3 -3 -3 -3 -3 -3 -3 -3 -3 -3 -3 -3 -3 -3 -3 -3 -2 -2 -2 -1 -1 -1
-3 -3 -3 -3 -3 -3 -3 -4 -4 -4 -4 -4 -4 -4 -4 -4 -4 -4 -4 -4 -4 -4 -4 -4 -4 -4 -4 -4 -4 -4 -4 -4 -4 -4 -4 -3 -3 -3 -3 -2 -2 -2 -2
-3 -3 -4 -4 -4 -4 -4 -4 -4 -4 -5 -5 -5 -5 -5 -5 -5 -5 -5 -5 -5 -5 -5 -5 -5 -5 -5 -5 -5 -5 -5 -4 -4 -4 -4 -4 -4 -4 -4 -3 -3 -3 -2
-4 -4 -4 -4 -5 -5 -5 -5 -5 -5 -5 -5 -5 -6 -6 -6 -6 -5 -6 -5 -5 -5 -5 -5 -5 -5 -5 -5 -5 -5 -5 -5 -5 -5 -5 -5 -4 -4 -4 -4 -4 -3 -3
-4 -4 -5 -5 -5 -5 -5 -5 -5 -6 -6 -6 -6 -6 -6 -6 -6 -6 -6 -6 -6 -6 -6 -6 -6 -6 -6 -5 -5 -5 -5 -5 -5 -5 -5 -5 -5 -5 -4 -4 -4 -4 -3
-5 -5 -5 -6 -6 -6 -6 -6 -6 -6 -6 -7 -7 -7 -7 -7 -7 -7 -7 -7 -6 -6 -6 -6 -6 -6 -6 -6 -6 -6 -6 -6 -5 -5 -5 -5 -5 -5 -5 -5 -5 -4 -4
-5 -6 -6 -6 -6 -6 -6 -7 -7 -7 -7 -7 -7 -7 -7 -7 -7 -7 -7 -7 -7 -7 -7 -7 -7 -7 -7 -6 -6 -6 -6 -6 -6 -6 -5 -5 -5 -5 -5 -5 -5 -5 -4
-6 -6 -6 -7 -7 -7 -7 -7 -7 -8 -8 -8 -8 -8 -8 -8 -8 -8 -8 -8 -8 -8 -8 -7 -7 -7 -7 -7 -7 -7 -6 -6 -6 -6 -6 -5 -5 -5 -5 -5 -5 -5 -4
-7 -7 -7 -7 -7 -7 -7 -8 -8 -8 -8 -8 -8 -8 -8 -8 -8 -8 -8 -8 -8 -8 -8 -8 -8 -8 -8 -7 -7 -7 -7 -6 -6 -6 -6 -6 -6 -5 -5 -5 -5 -5 -5
-7 -7 -8 -8 -8 -8 -8 -8 -8 -9 -9 -9 -9 -9 -9 -9 -9 -9 -9 -9 -9 -9 -9 -8 -8 -8 -8 -8 -8 -7 -7 -7 -7 -7 -7 -6 -6 -6 -6 -6 -6 -6 -5
-8 -8 -8 -8 -8 -9 -9 -9 -9 -9 -9 -9 -9 -9 -9 -10 -10 -9 -9 -9 -9 -9 -9 -9 -9 -9 -8 -8 -8 -8 -7 -7 -7 -7 -7 -7 -7 -7 -6 -6 -6 -6 -6
-8 -8 -8 -9 -9 -9 -9 -9 -10 -10 -10 -10 -10 -10 -10 -10 -10 -10 -10 -10 -10 -10 -10 -9 -9 -9 -9 -9 -8 -8 -8 -8 -8 -8 -8 -8 -7 -7 -7 -7 -6 -6 -6
-9 -9 -9 -9 -9 -10 -10 -10 -10 -11 -11 -11 -11 -11 -11 -11 -11 -11 -10 -10 -10 -10 -10 -10 -10 -9 -9 -9 -9 -9 -9 -9 -8 -8 -8 -8 -8 -8 -7 -7 -7 -7 -6
-9 -9 -10 -10 -10 -10 -10 -11 -11 -11 -11 -12 -12 -12 -12 -11 -11 -11 -11 -11 -11 -11 -10 -10 -10 -10 -10 -10 -10 -9 -9 -9 -9 -9 -9 -9 -9 -8 -8 -8 -8 -7 -7
-10 -10 -10 -11 -11 -11 -11 -11 -12 -12 -12 -12 -12 -12 -12 -12 -11 -11 -11 -11 -11 -11 -11 -11 -11 -11 -11 -10 -10 -10 -10 -10 -10 -10 -10 -9 -9 -9 -9 -8 -8 -8 -8
-10 -11 -11 -11 -11 -12 -12 -12 -12 -12 -12 -12 -12 -12 -12 -12 -12 -12 -11 -11 -11 -11 -11 -11 -11 -11 -11 -11 -11 -11 -11 -10 -10 -10 -10 -10 -10 -9 -9 -9 -9 -8 -8
-11 -11 -11 -12 -12 -12 -13 -13 -13 -12 -12 -13 -13 -13 -13 -13 -12 -12 -12 -12 -12 -12 -12 -12 -12 -12 -12 -12 -12 -12 -11 -11 -11 -11 -10 -10 -10 -10 -10 -10 -9 -9 -9
-11 -12 -12 -12 -13 -13 -13 -13 -13 -13 -13 -13 -13 -13 -13 -13 -13 -13 -13 -12 -12 -12 -12 -12 -12 -12 -12 -12 -12 -12 -12 -12 -11 -11 -11 -11 -10 -10 -10 -10 -10 -9 -9
-12 -12 -12 -13 -13 -13 -13 -14 -14 -14 -14 -14 -14 -13 -13 -14 -13 -13 -13 -13 -13 -13 -13 -13 -13 -13 -13 -13 -12 -12 -12 -12 -12 -12 -11 -11 -11 -11 -11 -10 -10 -10 -9
-12 -13 -13 -13 -13 -14 -14 -14 -14 -14 -14 -14 -14 -14 -14 -14 -14 -14 -14 -14 -14 -13 -13 -13 -13 -13 -13 -13 -13 -13 -13 -13 -12 -12 -12 -12 -11 -11 -11 -11 -10 -10 -10
-13 -13 -13 -14 -14 -14 -14 -14 -15 -15 -15 -15 -15 -15 -15 -15 -15 -14 -14 -14 -14 -14 -14 -14 -13 -13 -13 -13 -13 -13 -13 -13 -13 -12 -12 -12 -12 -12 -11 -11 -11 -10 -10
-13 -14 -14 -14 -14 -14 -15 -15 -15 -15 -15 -15 -15 -15 -15 -15 -15 -15 -14 -14 -14 -14 -14 -14 -14 -14 -13 -13 -13 -13 -13 -13 -13 -13 -13 -12 -12 -12 -12 -11 -11 -11 -10
-14 -14 -14 -14 -14 -15 -15 -15 -15 -15 -15 -15 -15 -15 -15 -15 -15 -15 -15 -15 -14 -14 -14 -14 -14 -14 -13 -13 -13 -13 -13 -13 -13 -13 -13 -13 -12 -12 -12 -11 -11 -11 -11
-14 -14 -14 -15 -15 -15 -15 -15 -15 -15 -16 -16 -15 -15 -15 -15 -15 -15 -15 -15 -15 -14 -14 -14 -14 -14 -14 -13 -13 -13 -13 -13 -13 -13 -13 -13 -12 -12 -12 -12 -11 -11 -11
-14 -14 -15 -15 -15 -15 -15 -15 -15 -16 -16 -16 -16 -15 -15 -15 -15 -15 -15 -15 -15 -15 -14 -14 -14 -14 -14 -14 -13 -13 -13 -13 -13 -13 -13 -12 -12 -12 -12 -12 -11 -11 -11
-14 -15 -15 -15 -15 -15 -15 -16 -16 -16 -16 -16 -16 -15 -15 -15 -15 -15 -15 -15 -15 -15 -14 -14 -14 -14 -14 -14 -13 -13 -13 -13 -13 -13 -12 -12 -12 -12 -12 -11 -11 -11 -11
Wind_Speed
2 1 0 1 1 1 2 2 3 3 4 4 5 5 5 6 6 5 5 5 5 6 6 6 6 6 6 5 5 5 6 6 9 8 6 5 6 7 10 12 12 12 13
1 1 1 1 1 2 2 3 3 4 4 5 5 5 6 6 6 5 6 6 6 7 7 7 7 7 7 6 6 6 6 7 8 10 7 6 7 7 7 8 10 12 12
1 1 1 2 2 2 3 3 4 4 5 5 5 5 6 6 6 6 6 6 6 7 7 8 8 7 8 7 7 7 7 7 6 8 9 6 6 6 7 8 9 8 11
1 1 2 2 2 3 3 3 4 4 4 5 6 6 6 7 7 6 6 6 6 7 7 8 8 8 8 8 8 8 8 7 7 8 8 8 7 7 6 7 8 6 7
1 1 2 2 2 3 3 4 4 5 6 6 6 6 6 6 7 7 6 7 7 7 7 8 9 11 12 11 10 8 8 7 7 8 9 8 8 6 7 6 8 7 7
1 2 2 2 3 3 4 4 5 5 5 5 6 6 7 7 11 13 11 7 7 8 9 9 9 11 12 15 16 15 13 10 9 9 9 10 10 8 7 8 7 8 8
1 2 2 3 3 4 4 4 5 5 5 6 6 6 7 9 14 14 14 9 7 8 8 9 10 9 11 8 12 15 14 17 16 12 11 12 11 9 9 10 9 9 10
1 2 3 3 4 4 4 5 5 5 5 6 7 7 7 9 14 15 15 9 7 8 8 9 10 9 10 10 9 10 10 11 13 10 10 11 10 9 9 10 11 10 9
2 3 3 3 4 5 6 6 5 5 6 6 7 7 7 9 14 15 15 7 7 9 9 9 9 9 14 16 11 11 11 10 14 16 17 16 17 17 14 8 8 8 9
3 4 4 4 5 6 6 6 5 6 7 7 8 7 7 8 13 15 14 6 7 8 8 9 12 13 16 16 11 10 11 10 9 10 11 13 12 13 16 10 8 9 8
3 4 4 5 5 6 6 5 5 6 6 7 8 8 8 9 12 14 14 7 7 8 8 7 8 15 16 17 15 10 13 12 9 8 8 8 8 8 8 8 8 8 8
4 4 5 5 6 6 5 6 6 6 6 7 7 8 6 7 10 12 14 13 12 8 8 7 9 15 17 17 14 14 17 14 7 6 7 7 7 7 7 8 9 9 10
4 5 5 6 5 6 6 6 6 5 5 6 6 7 7 6 7 14 15 15 15 10 8 13 15 17 16 12 14 16 13 7 6 6 7 7 7 7 7 7 8 8 9
5 5 6 5 6 5 5 5 5 5 5 6 7 7 7 7 7 7 7 9 12 11 9 12 15 15 12 12 11 9 6 6 6 6 7 7 6 6 6 6 7 6 6
5 5 6 6 5 5 5 5 6 5 7 8 6 7 7 8 10 14 11 9 8 9 10 7 6 6 6 6 6 6 5 6 6 5 6 6 6 6 6 6 6 6 7
5 5 5 5 5 5 5 6 10 10 13 14 13 12 10 13 17 17 17 16 16 15 10 6 6 6 6 6 7 6 6 6 6 6 6 6 6 6 7 6 6 6 7
5 6 5 5 5 6 6 6 8 9 12 13 15 15 15 16 17 17 17 17 15 13 7 6 6 6 6 6 6 6 6 6 6 6 6 6 6 6 6 7 6 6 6
6 7 6 5 5 6 6 7 7 7 8 7 10 15 16 17 17 17 16 14 9 7 5 6 6 6 6 6 6 7 7 6 6 6 6 6 6 6 6 7 6 6 6
5 4 5 5 5 6 7 7 6 7 7 8 7 9 14 15 15 15 13 7 7 6 6 6 6 6 6 6 6 6 6 6 7 6 6 7 6 6 6 6 6 9 8
5 9 8 6 6 6 6 6 6 7 7 7 7 8 8 9 8 8 7 7 7 6 6 7 7 7 6 6 6 6 6 7 7 7 6 6 6 6 7 7 7 7 7
5 7 10 8 6 6 6 6 6 7 7 7 7 10 13 8 7 7 7 7 6 6 7 7 7 7 6 6 6 7 7 7 7 7 7 6 7 7 7 7 7 7 6
5 5 5 6 6 6 7 6 6 6 7 8 7 9 14 8 6 7 7 7 7 6 6 7 7 7 6 6 6 7 7 8 7 7 7 7 7 7 7 6 7 6 6
5 6 6 6 6 9 9 6 6 6 7 7 8 8 7 7 7 7 7 7 7 7 8 7 7 8 8 9 8 8 8 8 8 8 8 8 8 7 7 7 7 7 7
5 6 6 6 6 6 6 6 6 7 7 7 7 7 7 7 7 8 8 7 8 8 8 8 9 10 12 11 11 11 11 12 12 10 10 9 9 8 7 7 7 8 7
4 6 6 6 6 6 6 6 6 7 7 7 7 7 7 7 7 8 7 7 8 9 10 10 10 11 12 14 14 14 16 18 17 13 10 9 9 8 8 8 7 7 6
5 6 6 5 5 5 6 6 7 7 7 7 7 7 7 7 8 8 7 8 8 8 9 10 12 13 15 14 15 17 19 19 18 17 12 8 8 7 7 6 6 6 6
Wind_Direction
168 170 194 261 277 280 285 286 293 298 300 299 302 302 301 299 295 285 279 282 279 283 281 275 272 271 271 269 258 253 258 260 268 276 273 273 272 278 285 282 279 275 271
167 185 228 253 268 282 290 294 299 300 302 301 301 296 294 296 293 280 276 280 278 277 279 275 274 274 270 270 264 257 259 259 261 274 277 275 271 271 272 273 279 274 271
182 203 237 256 268 277 288 295 296 296 296 298 294 292 294 293 291 279 272 273 274 273 278 276 274 274 273 270 263 261 263 266 261 266 274 273 272 272 274 276 274 272 273
197 223 248 261 271 280 285 288 290 292 290 288 287 288 290 290 291 287 283 278 276 275 277 278 275 272 270 269 267 260 262 262 260 262 268 271 271 268 267 270 276 268 273
220 247 261 276 282 284 285 286 287 287 289 286 289 290 290 288 286 287 283 280 279 282 281 282 279 278 278 275 273 264 259 257 258 260 264 272 272 268 266 269 275 278 271
237 269 279 285 285 283 285 289 290 289 291 291 289 287 287 288 290 292 293 285 284 285 286 287 282 279 279 282 283 283 274 264 258 257 262 261 265 265 268 272 275 277 279
287 290 289 288 290 291 296 297 291 290 287 286 286 284 282 285 291 292 294 294 287 285 283 285 286 285 288 281 284 286 283 279 273 265 261 261 264 262 261 266 264 266 271
295 295 294 296 299 301 296 290 288 287 285 282 284 281 284 288 293 294 296 294 285 281 280 279 281 281 280 282 279 279 271 270 270 268 262 263 265 264 256 261 267 268 273
308 302 304 304 301 299 296 293 294 294 292 288 286 285 284 289 294 294 294 286 284 283 281 281 282 280 283 287 286 282 278 273 276 276 274 276 276 279 281 276 272 271 274
313 313 313 308 301 296 293 293 294 294 291 294 293 289 283 285 292 295 294 286 284 286 285 284 285 285 287 289 285 280 279 276 276 278 278 276 273 274 276 267 263 266 272
316 317 313 305 298 293 290 292 293 293 292 290 291 291 287 288 294 296 297 296 287 287 289 289 289 292 291 291 290 283 281 286 279 273 273 271 265 261 260 260 258 255 262
317 312 307 303 300 302 294 292 291 288 290 289 291 293 291 292 297 298 299 299 301 293 289 289 290 294 294 293 292 290 292 295 287 275 271 269 268 265 261 262 265 262 260
318 311 305 306 302 302 298 296 296 290 289 292 293 296 300 300 300 302 302 302 302 301 293 294 296 299 299 295 292 294 295 290 283 277 272 271 269 268 269 271 270 267 268
317 311 308 306 303 301 298 296 294 291 290 292 293 296 299 300 300 299 295 296 296 296 295 294 297 298 299 297 297 295 288 282 279 277 278 278 278 275 275 277 277 275 274
313 309 309 306 301 300 297 290 292 279 284 293 289 290 295 295 296 301 303 300 297 292 298 296 298 299 295 294 293 291 287 287 285 279 283 283 282 282 282 280 277 276 273
312 312 310 308 306 304 301 301 299 298 301 301 301 299 297 298 303 305 308 307 306 305 303 297 295 295 295 297 299 298 295 292 289 287 284 285 285 284 285 287 279 273 273
304 306 307 310 310 307 305 304 305 306 303 303 304 306 306 308 310 311 312 312 309 313 305 296 291 293 296 296 296 295 293 293 291 287 281 281 283 283 283 283 280 276 275
303 305 308 302 303 302 300 299 300 303 307 306 306 306 309 311 312 313 314 317 312 311 305 298 294 293 294 293 293 294 295 296 293 290 286 280 279 281 281 281 277 274 276
305 303 302 301 300 300 299 298 299 301 302 305 308 309 310 311 311 313 316 313 306 303 303 302 299 295 294 293 292 293 294 294 294 291 289 287 281 279 279 278 278 280 280
300 304 308 302 300 303 302 301 302 302 302 302 303 306 310 310 309 310 312 305 301 301 302 302 302 299 296 293 294 295 294 292 293 291 289 288 287 281 279 280 279 279 276
301 303 308 307 302 300 299 299 299 300 301 301 299 303 311 312 309 309 308 307 305 304 303 301 300 301 299 297 294 292 290 290 287 289 289 286 285 284 281 278 278 277 276
300 300 301 301 303 302 301 300 301 301 301 302 302 304 310 312 308 305 304 304 306 302 302 301 299 296 292 291 291 291 288 287 286 285 287 287 284 282 282 280 279 279 278
301 302 303 304 302 305 309 306 303 302 302 303 304 305 306 307 306 304 304 305 305 304 303 301 299 298 297 292 287 281 281 282 281 279 282 284 282 281 280 279 277 277 274
299 300 300 301 302 301 302 302 302 303 304 304 305 305 306 306 306 306 307 307 306 304 302 300 297 295 297 298 293 287 282 283 282 276 272 275 279 280 279 279 276 273 271
299 299 298 298 300 301 302 303 304 305 306 306 305 305 306 306 306 305 306 305 304 302 301 301 299 297 297 296 295 293 292 291 289 284 275 270 272 272 274 273 272 274 270
301 300 300 300 299 299 301 303 304 305 305 304 303 303 304 304 304 305 306 306 306 305 304 303 300 299 298 297 296 297 299 297 294 292 286 273 271 271 270 270 269 267 265
Height
1508 1508 1507 1507 1507 1506 1506 1505 1503 1502 1501 1500 1498 1496 1495 1493 1492 1491 1490 1490 1489 1488 1488 1487 1486 1486 1486 1486 1485 1485 1485 1484 1479 1476 1477 1477 1477 1477 1476 1476 1475 1474 1473
1505 1505 1505 1504 1504 1503 1502 1501 1500 1499 1497 1496 1494 1492 1491 1489 1488 1486 1485 1485 1484 1483 1482 1481 1481 1481 1480 1480 1479 1478 1478 1477 1476 1471 1470 1471 1471 1471 1470 1469 1469 1468 1467
1502 1502 1501 1501 1500 1499 1498 1497 1496 1495 1493 1491 1490 1488 1486 1485 1483 1482 1481 1479 1479 1478 1477 1476 1475 1474 1473 1473 1472 1472 1471 1471 1470 1468 1465 1465 1465 1465 1464 1463 1462 1461 1461
1499 1499 1498 1498 1497 1496 1495 1494 1492 1490 1489 1487 1486 1484 1482 1480 1478 1477 1476 1475 1474 1473 1471 1470 1469 1468 1467 1467 1466 1465 1465 1465 1464 1462 1460 1459 1459 1459 1459 1457 1455 1455 1454
1496 1495 1494 1494 1493 1492 1491 1489 1488 1486 1485 1483 1481 1479 1477 1475 1474 1472 1471 1469 1468 1466 1465 1464 1463 1462 1461 1461 1460 1459 1459 1458 1457 1456 1455 1453 1453 1453 1452 1451 1450 1448 1447
1492 1491 1491 1490 1489 1488 1487 1485 1484 1482 1480 1479 1477 1475 1473 1471 1470 1468 1467 1464 1463 1461 1459 1458 1457 1456 1455 1454 1454 1453 1453 1452 1450 1450 1448 1447 1446 1446 1446 1445 1444 1442 1439
1489 1488 1487 1486 1485 1484 1483 1481 1479 1477 1476 1474 1472 1470 1468 1466 1465 1463 1462 1460 1457 1455 1454 1452 1451 1450 1449 1448 1446 1446 1445 1445 1445 1444 1441 1440 1439 1439 1439 1438 1437 1435 1433
1485 1485 1484 1483 1481 1480 1479 1477 1475 1473 1471 1469 1467 1465 1463 1461 1460 1458 1456 1454 1452 1450 1449 1447 1445 1443 1442 1441 1440 1438 1437 1436 1436 1435 1434 1433 1433 1433 1433 1432 1430 1429 1427
1482 1481 1480 1479 1478 1476 1474 1472 1471 1469 1466 1464 1463 1460 1458 1456 1455 1453 1451 1449 1446 1444 1443 1441 1439 1437 1436 1435 1434 1432 1430 1428 1428 1427 1427 1426 1426 1426 1426 1425 1423 1422 1418
1479 1478 1477 1475 1474 1472 1470 1468 1466 1464 1462 1460 1457 1456 1453 1451 1450 1448 1446 1443 1441 1438 1437 1435 1433 1432 1430 1429 1428 1425 1423 1421 1420 1419 1418 1418 1418 1417 1417 1417 1416 1415 1412
1476 1474 1473 1472 1470 1468 1466 1464 1462 1460 1457 1455 1452 1450 1448 1446 1444 1442 1441 1438 1436 1433 1431 1429 1427 1426 1424 1423 1421 1419 1416 1415 1413 1412 1410 1410 1409 1409 1409 1409 1409 1408 1406
1472 1471 1469 1467 1466 1464 1461 1459 1457 1455 1452 1450 1447 1445 1443 1441 1439 1437 1436 1434 1432 1429 1426 1424 1422 1420 1418 1416 1414 1412 1411 1409 1407 1405 1404 1402 1401 1401 1401 1401 1401 1400 1400
1469 1467 1465 1463 1461 1459 1457 1455 1453 1450 1448 1445 1443 1440 1438 1436 1434 1433 1431 1429 1426 1424 1421 1419 1417 1415 1412 1410 1408 1406 1404 1403 1401 1399 1397 1396 1395 1395 1394 1394 1393 1393 1392
1465 1463 1461 1459 1457 1455 1453 1451 1448 1446 1443 1441 1438 1436 1433 1431 1429 1427 1425 1423 1421 1419 1416 1413 1411 1408 1406 1404 1402 1399 1398 1397 1395 1393 1392 1391 1390 1389 1388 1387 1387 1386 1384
1462 1460 1458 1455 1453 1451 1448 1446 1444 1442 1440 1438 1435 1432 1429 1426 1425 1423 1421 1418 1415 1413 1411 1408 1404 1402 1400 1397 1395 1394 1392 1391 1389 1388 1386 1385 1384 1383 1382 1382 1381 1380 1378
1459 1456 1454 1452 1449 1447 1444 1442 1439 1438 1436 1433 1431 1429 1426 1424 1421 1418 1416 1413 1410 1408 1405 1401 1399 1397 1395 1392 1390 1388 1387 1385 1384 1382 1381 1380 1378 1377 1376 1375 1375 1374 1372
1456 1453 1451 1448 1446 1443 1440 1437 1434 1432 1431 1428 1426 1424 1421 1418 1416 1413 1410 1407 1405 1402 1399 1396 1394 1392 1390 1388 1386 1384 1382 1380 1378 1377 1376 1374 1373 1372 1370 1369 1368 1368 1367
1453 1450 1448 1445 1443 1440 1437 1434 1431 1428 1425 1422 1421 1418 1416 1413 1410 1407 1405 1402 1398 1396 1394 1392 1390 1387 1386 1383 1381 1379 1377 1375 1373 1371 1370 1369 1368 1366 1365 1364 1363 1362 1361
1450 1447 1445 1442 1439 1437 1434 1431 1428 1425 1422 1418 1415 1413 1411 1408 1405 1403 1400 1397 1394 1392 1390 1388 1385 1383 1381 1379 1377 1375 1372 1370 1368 1367 1365 1363 1362 1361 1359 1358 1357 1356 1356
1446 1444 1441 1439 1436 1433 1430 1427 1424 1421 1418 1415 1412 1409 1406 1403 1400 1398 1395 1393 1391 1388 1386 1384 1381 1379 1377 1374 1372 1370 1368 1366 1364 1362 1360 1358 1357 1356 1355 1353 1352 1351 1349
1443 1440 1438 1435 1432 1429 1427 1424 1421 1418 1415 1411 1408 1406 1404 1401 1397 1394 1392 1389 1387 1385 1382 1380 1377 1375 1372 1370 1368 1365 1363 1361 1360 1358 1356 1354 1352 1350 1349 1348 1347 1346 1345
1439 1437 1434 1432 1429 1426 1423 1420 1417 1414 1411 1408 1405 1402 1400 1397 1394 1391 1388 1386 1383 1381 1379 1376 1373 1371 1368 1366 1363 1361 1359 1356 1355 1353 1351 1349 1348 1346 1344 1343 1342 1341 1339
1436 1433 1431 1428 1425 1422 1419 1416 1414 1411 1408 1405 1402 1399 1396 1393 1390 1388 1385 1382 1379 1377 1374 1372 1369 1366 1364 1361 1359 1357 1354 1352 1350 1349 1347 1344 1343 1341 1340 1338 1336 1335 1334
1432 1430 1427 1424 1421 1419 1416 1413 1410 1407 1404 1401 1398 1396 1393 1390 1387 1384 1381 1378 1375 1372 1370 1367 1364 1361 1358 1356 1354 1352 1350 1348 1346 1344 1342 1341 1338 1336 1334 1332 1331 1330 1330
1429 1426 1424 1421 1418 1415 1412 1409 1407 1404 1401 1398 1395 1392 1389 1386 1383 1380 1377 1374 1371 1368 1365 1362 1359 1357 1354 1351 1348 1346 1344 1342 1341 1339 1338 1336 1333 1331 1330 1328 1327 1326 1326
1425 1423 1420 1417 1415 1412 1409 1406 1403 1401 1398 1395 1392 1389 1386 1383 1380 1376 1373 1370 1367 1364 1361 1358 1355 1352 1349 1346 1343 1341 1338 1337 1335 1334 1333 1330 1328 1326 1325 1324 1323 1322 1322